Regional Weather Roundup
Issued by NWS

Home | Current Version | Previous Version | Graphics & Text | Print | Product List | Glossary On
Versions: 1 2 3 4 5 6 7 8 9 10 11 12 13 14 15 16 17 18 19 20 21 22 23 24 25 26 27 28 29 30 31 32 33 34 35 36 37 38 39 40 41 42 43 44 45 46 47 48 49 50
000
ASUS43 KLMK 291810
RWRKY
KENTUCKY REGIONAL WEATHER ROUNDUP
NATIONAL WEATHER SERVICE LOUISVILLE KY
200 PM EDT MON AUG 29 2016

NOTE "FAIR" INDICATES FEW OR NO CLOUDS BELOW 12,000 FEET
WITH NO SIGNIFICANT WEATHER AND/OR OBSTRUCTIONS TO VISIBILITY.

KYZ001>023-026-027-061>063-070>075-291900-
WESTERN AND SOUTH CENTRAL KENTUCKY

CITY           SKY/WX    TMP DP  RH WIND       PRES   REMARKS
PADUCAH        SUNNY     90  75  61 NE8       30.15F HX 100
HENDERSON      SUNNY     90  70  51 NE5       30.16F HX  95
OWENSBORO      SUNNY     91  72  53 NE9       30.18F HX  98
HOPKINSVILLE   SUNNY     88  72  58 VRB2      30.15F HX  94
BOWLING GREEN  SUNNY     89  72  56 MISG      30.17F HX  96
GLASGOW        MOSUNNY   87  72  60 NE6       30.18F HX  94
$$

KYZ024-025-028>034-038-045-046-053-291900-
NORTH CENTRAL KENTUCKY

CITY           SKY/WX    TMP DP  RH WIND       PRES   REMARKS
LOUISVILLE/SDF MOSUNNY   90  69  50 NE6       30.18F HX  94
LOUISVILLE/LOU SUNNY     90  69  50 VRB3      30.19F HX  94
FORT KNOX      SUNNY     88  70  56 N8        30.18F HX  93
$$

KYZ035>037-039>044-047>052-055>060-089>105-291900-
NORTHEAST KENTUCKY

CITY           SKY/WX    TMP DP  RH WIND       PRES   REMARKS
LEXINGTON      SUNNY     89  72  56 VRB5      30.21F HX  96
COVINGTON      MOSUNNY   88  72  58 VRB5      30.23S HX  94
FRANKFORT      SUNNY     89  71  55 VRB5      30.20F HX  95
$$

KYZ054-064>069-076>088-106>120-291900-
SOUTHEAST KENTUCKY

CITY           SKY/WX    TMP DP  RH WIND       PRES   REMARKS
JACKSON        PTSUNNY   84  74  71 CALM      30.22F HX  91
LONDON         SUNNY     88  70  55 NE5       30.20F HX  93
SOMERSET       SUNNY     86  68  54 NE5       30.20F
MIDDLESBORO    SUNNY     88  69  53 CALM      30.20F HX  92
MONTICELLO     CLEAR    N/A N/A N/A NW12G20   30.21S
$$





USA.gov is the U.S. government's official web portal to all federal, state and local government web resources and services.